Skip Page Navigation
NASA JPL Caltech
NASA Logo - Jet Propulsion Laboratory + View the NASA Portal
+ Near-Earth Object (NEO) Program
Search JPL
JPL Home Earth Solar System Stars & Galaxies Technology
JPL Solar System Dynamics
BODIES ORBITS EPHEMERIDES TOOLS PHYSICAL DATA DISCOVERY FAQ SITE MAP
JPL Small-Body Database Browser
Search: [ help ]  
3537 Jurgen (1982 VT)
Classification: Main-belt Asteroid          SPK-ID: 2003537
Ephemeris | Orbit Diagram | Orbital Elements | Physical Parameters | Discovery Circumstances | Close-Approach Data ]

[ show orbit diagram ]
Orbital Elements at Epoch 2457000.5 (2014-Dec-09.0) TDB
Reference: JPL 18 (heliocentric ecliptic J2000)
 Element Value Uncertainty (1-sigma)   Units 
e .1571586205165949 6.0749e-08  
a 2.587980529450155 2.9937e-08 AU
q 2.181257079517962 1.7191e-07 AU
i 15.17307141928388 8.7773e-06 deg
node 44.26160988829159 2.0761e-05 deg
peri 277.792700906452 4.1942e-05 deg
M 322.048957660987 3.702e-05 deg
tp 2457160.810194662618
(2015-May-18.31019466)
0.00015625 JED
period 1520.687351957551
4.16
2.6387e-05
7.224e-08
d
yr
n .236735052433085 4.1078e-09 deg/d
Q 2.994703979382348 3.4642e-08 AU
  Orbit Determination Parameters
   # obs. used (total)      1017  
   data-arc span      11937 days (32.68 yr)  
   first obs. used      1982-10-20  
   last obs. used      2015-06-26  
   planetary ephem.      DE431  
   SB-pert. ephem.      SB431-BIG16  
   condition code      0  
   fit RMS      .45152  
   data source      ORB  
   producer      Otto Matic  
   solution date      2015-Jul-06 11:46:06  

Additional Information
 Earth MOID = 1.23237 AU 
 T_jup = 3.355 
[ show covariance matrix ]

Ephemeris | Orbit Diagram | Orbital Elements | Physical Parameters | Discovery Circumstances | Close-Approach Data ]

Physical Parameter Table
Parameter Symbol Value Units Sigma Reference Notes
absolute magnitude H 12.4 mag n/a MPO302084  
rotation period rot_per 14. h n/a LCDB (Rev. 2015-May); Warner et al., 2009 lower-limit; Result based on fragmentary lightcurve(s), may be completely wrong.
Published Reference List:
[Alvarez-Candal, A.; Duffard, R.; Angeli, C.A.; Lazzaro, D.; Fernandez, S. (2004) Icarus 172, 388-401.]

3537 Jurgen (1982 VT)          Discovered 1982-Nov-15 by Bowell, E. at Flagstaff (AM)
Discovered at the Anderson Mesa station, which is operated by the Lowell Observatory.
Reference: DISCOVERY.DBLast Updated: 2003-08-29

[ show close-approach data ]
Alternate Designations
 1982 VT = 1985 JE1 
Ephemeris | Orbit Diagram | Orbital Elements | Physical Parameters | Discovery Circumstances | Close-Approach Data ]
ABOUT SSD CREDITS/AWARDS PRIVACY/COPYRIGHT GLOSSARY LINKS
FirstGov 2015-Jul-31 15:24 UT
(server date/time)  
NASA Home Page
Site Manager:   Ryan S. Park
Webmaster  Alan B. Chamberlin